Home   Weather   San Fernando   Past weeks
Flag for Trinidad and Tobago

Past Weather in San Fernando, Trinidad and Tobago — Yesterday and Last 2 Weeks

Now
79 °F

Passing clouds.


Feels Like: 82 °F
Forecast: 87 / 78 °F
Wind: 12 mph from Southeast

Location: Piarco International Airport - Trinidad

Current Time: May 22, 2019 at 9:20:33 pm

Latest Report: May 22, 2019 at 8:00 pm


Visibility: N/A

Pressure: 29.89 "Hg

Humidity: 84%

Dew Point: 73 °F

Location of San FernandoLocation

Past Weather in San Fernando — Graph

°F

San Fernando Temperature Yesterday

Maximum temperature yesterday: 93 °F (at 2:00 pm)
Minimum temperature yesterday: 75 °F (at 5:00 am)
Average temperature yesterday: 83 °F

High & Low Weather Summary for the Past Weeks

 TemperatureHumidityPressure
High93 °F (May 21, 2:00 pm)94% (May 8, 2:00 am)30.01 "Hg (May 8, 2:00 am)
Low75 °F (May 16, 5:00 am)46% (May 9, 12:00 pm)29.83 "Hg (May 8, 3:00 pm)
Average83 °F76%29.91 "Hg
* Reported May 7 8:00 pm — May 22 8:00 pm, San Fernando. Weather by CustomWeather, © 2019

Note: Actual official high and low records may vary slightly from our data, if they occured in-between our weather recording intervals... More about our weather records

Advertising

San Fernando Weather History for the Previous 24 Hours

Scroll right to see more
 ConditionsComfort  
Time TempWeatherWind HumidityBarometerVisibility
8:00 pm
Wed, May 22
79 °FPassing clouds.12 mph84%29.89 "HgN/A
7:00 pm81 °FScattered showers. Passing clouds.9 mph79%29.89 "HgN/A
6:00 pm81 °FScattered showers. Partly sunny.14 mph79%29.86 "HgN/A
5:00 pm81 °FScattered showers. Scattered clouds.13 mph79%29.86 "HgN/A
4:00 pm84 °FScattered showers. Passing clouds.17 mph70%29.86 "HgN/A
3:00 pm90 °FScattered showers. Passing clouds.14 mph55%29.86 "HgN/A
2:00 pm88 °FScattered showers. Passing clouds.15 mph62%29.89 "HgN/A
1:00 pm91 °FScattered clouds.16 mph59%29.89 "HgN/A
12:00 pm90 °FPartly sunny.16 mph59%29.92 "HgN/A
11:00 am90 °FPartly sunny.16 mph59%29.92 "HgN/A
10:00 am88 °FPartly sunny.17 mph62%29.92 "HgN/A
9:00 am86 °FScattered clouds.18 mph70%29.92 "HgN/A
8:00 am84 °FScattered clouds.16 mph70%29.92 "HgN/A
7:00 am81 °FPassing clouds.8 mph84%29.92 "HgN/A
6:00 am77 °FPassing clouds.6 mph89%29.89 "HgN/A
5:00 am77 °FPassing clouds.6 mph89%29.89 "HgN/A
4:00 am79 °FPassing clouds.7 mph84%29.89 "HgN/A
3:00 am79 °FPassing clouds.1 mph84%29.89 "HgN/A
2:00 am77 °FPassing clouds.No wind89%29.92 "HgN/A
1:00 am79 °FPassing clouds.No wind84%29.92 "HgN/A
12:00 am79 °FPassing clouds.No wind79%29.92 "HgN/A
11:00 pm
Tue, May 21
79 °FPassing clouds.2 mph79%29.95 "HgN/A
10:00 pm81 °FPassing clouds.5 mph74%29.92 "HgN/A
9:00 pm81 °FPassing clouds.3 mph74%29.92 "HgN/A
Weather by CustomWeather, © 2019

See weather overview